Home   Weather   Ceuta   Past weeks

Flag for Spain Past Weather in Ceuta, Ceuta, Spain — Yesterday and Last 2 Weeks

Now
70 °F

Haze.


Feels Like: 70 °F
Forecast: 71 / 76 °F
Wind: 16 mph from East

Location: Gibraltar Airport

Current Time: Sep 28, 2016 at 10:43:57 PM

Latest Report: Sep 28, 2016 at 9:50 PM


Visibility: 6 mi

Pressure: 30.21 "Hg

Humidity: 83%

Dew Point: 64 °F

Location of CeutaLocation

Past Weather in Ceuta — Graph

°F

Ceuta Temperature Yesterday

Maximum temperature yesterday: 75 °F (at 3:50 PM)
Minimum temperature yesterday: 68 °F (at 7:50 AM)
Average temperature yesterday: 71 °F

High & Low Weather Summary for the Past Weeks

 TemperatureHumidityPressure
High84 °F (Sep 20, 3:50 PM)100% (Sep 26, 2:50 AM)30.21 "Hg (Sep 26, 2:50 AM)
Low63 °F (Sep 15, 7:50 AM)30% (Sep 15, 5:50 PM)29.98 "Hg (Sep 20, 3:50 AM)
Average70 °F75%30.09 "Hg
* Reported Sep 13 8:50 PM — Sep 28 8:50 PM, Ceuta, Weather by CustomWeather, © 2016

Note: Actual official high and low records may vary slightly from our data, if they occured in-between our weather recording intervals... More about our weather records

Advertising

Ceuta Weather History for the Previous 24 Hours

Scroll right to see more
 ConditionsComfort  
Time TempWeatherWind HumidityBarometerVisibility
8:50 PM
Wed, Sep 28
70 °FPassing clouds.15 mph83%30.21 "HgN/A
6:50 PM72 °FPassing clouds.16 mph83%30.18 "HgN/A
5:50 PM72 °FScattered clouds.16 mph83%30.18 "HgN/A
4:50 PM73 °FPassing clouds.16 mph78%30.18 "HgN/A
3:50 PM73 °FScattered clouds.18 mph83%30.18 "HgN/A
2:50 PM73 °FPassing clouds.20 mph78%30.18 "HgN/A
1:50 PM73 °FPassing clouds.14 mph78%30.21 "HgN/A
12:50 PM73 °FPartly sunny.17 mph78%30.21 "HgN/A
11:50 AM72 °FScattered clouds.17 mph83%30.21 "HgN/A
10:50 AM72 °FScattered clouds.16 mph83%30.21 "HgN/A
9:50 AM72 °FScattered clouds.16 mph83%30.18 "HgN/A
8:50 AM70 °FBroken clouds.17 mph94%30.18 "HgN/A
7:50 AM70 °FPassing clouds.15 mph94%30.15 "HgN/A
6:50 AM70 °FPassing clouds.13 mph94%30.15 "HgN/A
5:50 AM70 °FPassing clouds.17 mph94%30.15 "HgN/A
4:50 AM70 °FPartly cloudy.17 mph94%30.15 "HgN/A
3:50 AM70 °FPartly cloudy.16 mph94%30.18 "HgN/A
2:50 AM70 °FPassing clouds.15 mph94%30.18 "HgN/A
1:50 AM72 °FPassing clouds.15 mph88%30.18 "HgN/A
12:50 AM72 °FOvercast.14 mph88%30.18 "HgN/A
11:50 PM
Tue, Sep 27
72 °FOvercast.14 mph88%30.21 "HgN/A
10:50 PM72 °FPassing clouds.10 mph88%30.21 "HgN/A
Weather by CustomWeather, © 2016

See weather overviewHow to use our weather pages